Punta Gorda, FL

9:58 AM EST on January 21, 2018 (GMT -0500)
Charlotte County

Weather History for KPGD - February, 2012

Change the Weather History Date:

Tuesday, February 7, 2012

  Actual Average Record
Temperature  
Mean Temperature 73 °F -  
Max Temperature 80 °F 72 °F 93 °F (2017)
Min Temperature 66 °F 50 °F 42 °F (2000)
Cooling Degree Days 8    
Growing Degree Days 23 (Base 50)    
Moisture  
Dew Point 66 °F    
Average Humidity 83    
Maximum Humidity 100    
Minimum Humidity 60    
Precipitation  
Precipitation 0.02 in - - ()
Sea Level Pressure  
Sea Level Pressure 30.04 in    
Wind  
Wind Speed 7 mph (NE)    
Max Wind Speed 13 mph    
Max Gust Speed -    
Visibility 9 miles    
Events      
Averages and records for this station are not official NWS values.
T = Trace of Precipitation, MM = Missing Value Source: NWS Daily Summary

Daily Weather History Graph

Daily Weather History Graph

Search for Another Location

Airport or City:

Trip Planner

Search our weather history database for the weather conditions in past years. The results will help you decide how hot, cold, wet, or windy it might be!

Date:

Astronomy

Feb. 07, 2012 Rise Set
Actual Time 7:10 AM EST 6:14 PM EST
Civil Twilight 6:46 AM EST 6:38 PM EST
Nautical Twilight 6:18 AM EST 7:05 PM EST
Astronomical Twilight 5:51 AM EST 7:33 PM EST
Moon 6:18 PM EST (2/7) 6:41 AM EST (2/7)
Length of Visible Light 11h 51m
Length of Day
11h 03m
Full, 100% of the Moon is Illuminated
Feb 7
Full
Feb 7
Full
Feb 14
Last Quarter
Feb 21
New
Feb 29
First Quarter

Hourly Weather History & Observations

Time (EST) Temp. Heat Index Dew Point Humidity Pressure Visibility Wind Dir Wind Speed Gust Speed Precip Events Conditions
12:53 AM 68.0 °F - 66.0 °F 93% 30.06 in 10.0 mi ENE 3.5 mph - 0.02 in   Overcast
1:53 AM 68.0 °F - 66.0 °F 93% 30.05 in 10.0 mi NE 3.5 mph - N/A   Overcast
2:36 AM 68.0 °F - 66.2 °F 94% 30.04 in 10.0 mi NE 4.6 mph - N/A   Overcast
2:48 AM 68.0 °F - 66.2 °F 94% 30.04 in 10.0 mi NNE 4.6 mph - N/A   Overcast
2:53 AM 68.0 °F - 66.0 °F 93% 30.04 in 10.0 mi NNE 5.8 mph - N/A   Overcast
3:11 AM 68.0 °F - 66.2 °F 94% 30.04 in 10.0 mi NE 5.8 mph - N/A   Overcast
3:53 AM 68.0 °F - 66.0 °F 93% 30.04 in 10.0 mi NE 5.8 mph - N/A   Overcast
4:53 AM 68.0 °F - 66.0 °F 93% 30.03 in 8.0 mi NE 4.6 mph - N/A   Overcast
5:14 AM 66.2 °F - 66.2 °F 100% 30.03 in 1.8 mi ENE 6.9 mph - N/A   Overcast
5:38 AM 68.0 °F - 66.2 °F 94% 30.02 in 3.0 mi ENE 8.1 mph - N/A   Overcast
5:53 AM 68.0 °F - 66.0 °F 93% 30.02 in 1.8 mi ENE 6.9 mph - N/A   Overcast
6:11 AM 66.2 °F - 66.2 °F 100% 30.03 in 3.0 mi ENE 10.4 mph - N/A   Overcast
6:53 AM 66.0 °F - 64.9 °F 96% 30.04 in 9.0 mi NE 5.8 mph - N/A   Overcast
7:01 AM 66.2 °F - 64.4 °F 94% 30.04 in 9.0 mi NE 4.6 mph - N/A   Overcast
8:48 AM 69.8 °F - 66.2 °F 88% 30.08 in 10.0 mi ENE 8.1 mph - N/A   Overcast
8:53 AM 69.1 °F - 66.0 °F 90% 30.08 in 10.0 mi ENE 8.1 mph - N/A   Overcast
9:10 AM 69.8 °F - 66.2 °F 88% 30.08 in 10.0 mi ENE 5.8 mph - N/A   Overcast
9:53 AM 72.0 °F - 66.9 °F 84% 30.07 in 10.0 mi East 9.2 mph - N/A   Mostly Cloudy
10:24 AM 73.4 °F - 66.2 °F 78% 30.07 in 10.0 mi ENE 9.2 mph - N/A   Scattered Clouds
10:53 AM 75.9 °F - 66.9 °F 74% 30.07 in 10.0 mi ENE 9.2 mph - N/A   Partly Cloudy
11:39 AM 75.2 °F - 66.2 °F 73% 30.05 in 10.0 mi NNE 9.2 mph - N/A   Mostly Cloudy
11:53 AM 78.1 °F - 66.9 °F 68% 30.06 in 10.0 mi ENE 9.2 mph - N/A   Mostly Cloudy
12:53 PM 75.9 °F - 66.9 °F 74% 30.04 in 10.0 mi NE 9.2 mph - N/A   Overcast
1:10 PM 77.0 °F - 66.2 °F 69% 30.02 in 10.0 mi NE 11.5 mph - N/A   Scattered Clouds
1:18 PM 78.8 °F - 66.2 °F 65% 30.02 in 10.0 mi ENE 11.5 mph - N/A   Mostly Cloudy
1:51 PM 80.6 °F 82.7 °F 66.2 °F 61% 30.01 in 10.0 mi NE 10.4 mph - N/A   Mostly Cloudy
1:53 PM 80.1 °F 82.1 °F 66.0 °F 62% 30.01 in 10.0 mi ENE 10.4 mph - N/A   Mostly Cloudy
2:53 PM 79.0 °F - 64.9 °F 62% 29.99 in 10.0 mi NNE 10.4 mph - N/A   Mostly Cloudy
3:53 PM 80.1 °F 81.9 °F 64.9 °F 60% 30.00 in 10.0 mi North 9.2 mph - N/A   Mostly Cloudy
4:53 PM 79.0 °F - 64.9 °F 62% 30.01 in 10.0 mi North 8.1 mph - N/A   Overcast
5:53 PM 75.9 °F - 66.0 °F 71% 30.02 in 10.0 mi NNE 10.4 mph - N/A   Mostly Cloudy
6:53 PM 73.0 °F - 66.0 °F 79% 30.01 in 10.0 mi ENE 12.7 mph - N/A   Scattered Clouds
7:24 PM 71.6 °F - 66.2 °F 83% 30.02 in 10.0 mi NE 6.9 mph - N/A   Mostly Cloudy
7:41 PM 71.6 °F - 66.2 °F 83% 30.03 in 10.0 mi NE 10.4 mph - N/A   Mostly Cloudy
7:53 PM 71.1 °F - 66.0 °F 84% 30.04 in 10.0 mi NE 9.2 mph - N/A   Mostly Cloudy
8:53 PM 71.1 °F - 66.0 °F 84% 30.06 in 10.0 mi NE 8.1 mph - N/A   Overcast
9:50 PM 69.8 °F - 64.4 °F 83% 30.08 in 10.0 mi NE 9.2 mph - N/A   Overcast
9:53 PM 69.1 °F - 64.0 °F 84% 30.08 in 10.0 mi NE 10.4 mph - N/A   Overcast
10:53 PM 68.0 °F - 64.0 °F 87% 30.09 in 8.0 mi NNE 5.8 mph - N/A   Mostly Cloudy
11:05 PM 66.2 °F - 64.4 °F 94% 30.08 in 8.0 mi NE 4.6 mph - N/A   Scattered Clouds
11:16 PM 66.2 °F - 64.4 °F 94% 30.09 in 8.0 mi NE 3.5 mph - N/A   Mostly Cloudy
11:53 PM 68.0 °F - 64.0 °F 87% 30.10 in 8.0 mi North 5.8 mph - N/A   Overcast